Showing default

KONDOR FKA 2, 62138

Orbit data source: Space-Track

KONDOR FKA 2, 62138 is a payload satellite owned by NPO Mash (CIS) in SSO that was launched on Fri, 29 Nov 2024 UTC via a SOYUZ-2-1A launch vehicle from the Vostochny Cosmodrome (VOSTO). Payload-class satellites include a variety of spacecraft equipped with specific instruments for various scientific and technological missions. These include communications satellites like Starlink; space stations such as the ISS; scientific satellites like the Hubble; Earth observation satellites from companies like Planet Labs, Umbra, and HawkEye 360; GPS; miniature CubeSats for education and research; and military/defense satellites.

Loading next visibility...
Identifier
62138, 2024-223A
Orbit
SSO
Country
Flag of CISCIS
Related business
Manufacturer
NPOMA?
Mission
Operational Civil Radar Imaging
Bus & Motor
KONDOR, Unknown motor
Mass
1,050 kg wet, 1,050 kg dry
Launch date (UTC)
2024-11-29 (2 years ago)
Launch vehicle
SOYUZ-2-1A
Launch site
Vostochny Cosmodrome (VOSTO)
Object type
Payload
Rocket body
Debris
Shape & HBR
Box + 2 Pan + 1 Dish, 2.5 m
Radar Cross Section
3.234 m², Large (>1 m²)

Expand to show TLE details & history
Last TLE update: 8 hours ago

TLE from 8 hours ago
0 KONDOR FKA 2
1 62138U 24223A   26171.53686785  .00002881  00000-0  13809-3 0  9991
2 62138  97.4421  14.9311 0001678  97.1515 262.9910 15.19706921 86215
Epoch: 2026-06-20T12:53Z
TLE epoch observation values (Epoch: 2026-06-20T12:53:05.382Z)
Latitude
-0.00008°
Longitude
-87.09139°
Altitude
509.956 km
Speed
7.609 km/s
True Right ascension
00h 59m 43s
True Declination
0° 00' 00"
Sunlit
Object was in daylight at epoch
Visualization orbit readout
Latitude
Unknown
Longitude
Unknown
Altitude
Unknown
Speed
Unknown
Apparent Right ascension
Unknown
Apparent Declination
Unknown
Sunlit
N/A
Visualization observer readout
Local Sidereal Time
07:22:39
Azimuth
Unknown
Elevation
Unknown
Doppler factor
Unknown
Orbital elements
Apogee altitude
504.848 km
Perigee altitude
502.539 km
Semi-major axis
6,881.83 km
Eccentricity
0.00017
Inclination
97.4421°
RAAN
14.9311°
Arg. of periapsis
97.1515°
True anomaly
262.97192°
Mean anomaly
262.991°
Eccentric anomaly
262.98146°
Mean motion
3.80178 °/min
Orbital period
94.69 mins
BSTAR
0.00013809
Loading maneuver chart data...
Computing Atmospheric mass density...
Loading historical data...
Loading historical data...
Loading historical data...
Loading historical data...
Loading historical data...
Loading historical data...
Loading historical data...
Other satellites on launch #223 in the year 2024 (2024-11-29 UTC)

Documentation

Showing up to 5 results
|